星链-1849 (STARLINK-1849 )

导读

STARLINK-1849是美国太空探索技术公司(SpaceX)发射的星链(Starlink)卫星,属于星链星座中一箭多星发射的卫星之一,于2020年11月25日发射升空,主要为全球范围提供高速互联网接入服务,是星链全球卫星互联网组网建设过程中的组成卫星。

Basic Information
目录编号:
47137
目录名称:
STARLINK-1849
国际标识:
2020-088R
轨道中心:
EARTH
卫星名称:
星链-1849
卫星全名:
星链-1849 (STARLINK-1849 )
卫星状态:
已陨落 最后检测时间 2025-06-04
发射日期:
2020-11-25 UTC
国别 :
美国 (US)
星等 :
--
Orbit Information
数据来源 国际轨道数据
星历时间: 2025-06-03T12:18:04+0800
轨道信息已过期380天
半长轴: 6571.656km
偏心率: 0.0006829
轨道倾角: 53.029°
近地点辐角 231.734°
升交点赤经 61.977°
平近点角 246.839°
近地点: 189.033km
远地点: 198.009km
周期: 88.363分钟
每日圈数: 16.296358
Detailed Information
固有亮度:
5
最大亮度:
2.5
卫星平台:
Starlink V1.0
覆盖范围:
全球
运营商:
太空探索技术公司
运营商所在国:
美国
制造商(研发单位):
太空探索技术公司
制造商所在国:
美国
使用方式:
暂无
Satellite Introduction
星链(Starlink)计划是由太空探索技术公司(SpaceX)提出的一个巨型低轨卫星互联网星座项目,计划在2019年至2024年间在太空搭建由约1.2万颗卫星组成的“星链”网络,其中1584颗将部署在地球上空550千米处的近地轨道,并从2020年开始工作。该卫星仍在工作。